TimeEST,TemperatureF,Dew PointF,Humidity,Sea Level PressureIn,VisibilityMPH,Wind Direction,Wind SpeedMPH,Gust SpeedMPH,PrecipitationIn,Events,Conditions,WindDirDegrees,DateUTC
12:15 AM,31.8,18.1,57,29.86,10.0,North,-9999.0,-,N/A,,Clear,0,2014-01-26 05:15:00
12:35 AM,30.9,18.3,60,29.86,10.0,North,-9999.0,-,N/A,,Clear,0,2014-01-26 05:35:00
12:55 AM,31.5,18.7,59,29.87,10.0,North,-9999.0,-,N/A,,Clear,0,2014-01-26 05:55:00
1:15 AM,32.0,19.2,59,29.88,10.0,North,-9999.0,-,N/A,,Clear,0,2014-01-26 06:15:00
1:35 AM,32.0,19.8,61,29.86,10.0,North,-9999.0,-,N/A,,Clear,0,2014-01-26 06:35:00
1:55 AM,31.8,19.9,62,29.87,10.0,North,-9999.0,-,N/A,,Clear,0,2014-01-26 06:55:00
2:15 AM,31.6,19.9,62,29.87,10.0,North,-9999.0,-,N/A,,Clear,0,2014-01-26 07:15:00
2:35 AM,31.8,20.3,62,29.87,10.0,North,-9999.0,-,N/A,,Clear,0,2014-01-26 07:35:00
2:55 AM,31.8,20.5,63,29.87,10.0,North,-9999.0,-,N/A,,Clear,0,2014-01-26 07:55:00
3:15 AM,31.8,20.8,64,29.87,10.0,North,-9999.0,-,N/A,,Clear,0,2014-01-26 08:15:00
3:35 AM,28.8,20.1,70,29.87,10.0,North,-9999.0,-,N/A,,Clear,0,2014-01-26 08:35:00
3:55 AM,30.4,21.4,69,29.87,10.0,North,-9999.0,-,N/A,,Clear,0,2014-01-26 08:55:00
4:15 AM,29.1,21.0,72,29.88,10.0,North,-9999.0,-,N/A,,Clear,0,2014-01-26 09:15:00
4:35 AM,28.6,21.2,74,29.87,10.0,North,-9999.0,-,N/A,,Clear,0,2014-01-26 09:35:00
4:55 AM,29.8,21.7,72,29.89,10.0,North,-9999.0,-,N/A,,Clear,0,2014-01-26 09:55:00
5:15 AM,29.3,21.7,73,29.88,10.0,North,-9999.0,-,N/A,,Clear,0,2014-01-26 10:15:00
5:35 AM,29.5,21.6,72,29.89,10.0,North,-9999.0,-,N/A,,Clear,0,2014-01-26 10:35:00
5:55 AM,28.0,21.4,76,29.89,10.0,North,-9999.0,-,N/A,,Clear,0,2014-01-26 10:55:00
6:15 AM,28.0,21.6,77,29.89,10.0,North,-9999.0,-,N/A,,Clear,0,2014-01-26 11:15:00
6:35 AM,28.9,21.6,74,29.90,10.0,North,-9999.0,-,N/A,,Clear,0,2014-01-26 11:35:00
6:55 AM,25.3,20.7,82,29.92,10.0,North,-9999.0,-,N/A,,Clear,0,2014-01-26 11:55:00
7:15 AM,27.1,21.4,79,29.91,10.0,North,-9999.0,-,N/A,,Clear,0,2014-01-26 12:15:00
7:35 AM,28.2,21.6,76,29.92,10.0,North,-9999.0,-,N/A,,Clear,0,2014-01-26 12:35:00
7:55 AM,25.3,20.7,82,29.92,10.0,North,-9999.0,-,N/A,,Clear,0,2014-01-26 12:55:00
8:15 AM,26.1,21.6,83,29.93,10.0,North,-9999.0,-,N/A,,Clear,0,2014-01-26 13:15:00
8:35 AM,27.3,22.1,81,29.92,10.0,North,-9999.0,-,N/A,,Clear,0,2014-01-26 13:35:00
8:55 AM,29.3,23.2,78,29.92,10.0,North,-9999.0,-,N/A,,Clear,0,2014-01-26 13:55:00
9:15 AM,30.0,23.0,75,29.93,10.0,North,-9999.0,-,N/A,,Clear,0,2014-01-26 14:15:00
9:35 AM,33.1,23.4,67,29.93,10.0,North,-9999.0,-,N/A,,Clear,0,2014-01-26 14:35:00
9:55 AM,35.8,24.1,62,29.94,10.0,North,-9999.0,-,N/A,,Clear,0,2014-01-26 14:55:00
10:15 AM,38.3,24.3,57,29.95,10.0,North,-9999.0,-,N/A,,Clear,0,2014-01-26 15:15:00
10:35 AM,40.1,23.7,52,29.95,10.0,North,-9999.0,-,N/A,,Clear,0,2014-01-26 15:35:00
10:55 AM,43.0,22.6,45,29.94,10.0,North,-9999.0,-,N/A,,Clear,0,2014-01-26 15:55:00
11:15 AM,45.3,22.1,40,29.94,10.0,North,-9999.0,-,N/A,,Clear,0,2014-01-26 16:15:00
11:35 AM,47.7,22.5,37,29.93,10.0,North,-9999.0,-,N/A,,Clear,0,2014-01-26 16:35:00
11:55 AM,48.7,23.0,36,29.92,10.0,North,-9999.0,-,N/A,,Clear,0,2014-01-26 16:55:00
12:15 PM,49.6,23.9,37,29.91,10.0,North,-9999.0,-,N/A,,Clear,0,2014-01-26 17:15:00
12:35 PM,50.5,25.2,37,29.91,10.0,North,-9999.0,-,N/A,,Clear,0,2014-01-26 17:35:00
12:55 PM,51.1,26.1,38,29.89,10.0,North,-9999.0,-,N/A,,Clear,0,2014-01-26 17:55:00
1:15 PM,51.6,26.4,38,29.88,10.0,North,-9999.0,-,N/A,,Clear,0,2014-01-26 18:15:00
1:35 PM,52.7,27.1,37,29.87,10.0,North,-9999.0,-,N/A,,Clear,0,2014-01-26 18:35:00
1:55 PM,52.9,27.5,38,29.87,10.0,North,-9999.0,-,N/A,,Clear,0,2014-01-26 18:55:00
2:15 PM,52.2,27.5,39,29.86,10.0,North,-9999.0,-,N/A,,Clear,0,2014-01-26 19:15:00
2:35 PM,52.5,28.2,39,29.85,10.0,North,-9999.0,-,N/A,,Clear,0,2014-01-26 19:35:00
2:55 PM,53.1,28.4,39,29.85,10.0,North,-9999.0,-,N/A,,Clear,0,2014-01-26 19:55:00
3:15 PM,52.7,28.4,39,29.85,10.0,North,-9999.0,-,N/A,,Clear,0,2014-01-26 20:15:00
3:35 PM,52.9,28.8,40,29.84,10.0,North,-9999.0,-,N/A,,Clear,0,2014-01-26 20:35:00
3:55 PM,53.2,28.8,39,29.84,10.0,North,-9999.0,-,N/A,,Clear,0,2014-01-26 20:55:00
4:15 PM,53.4,28.9,39,29.85,10.0,North,-9999.0,-,N/A,,Clear,0,2014-01-26 21:15:00
4:35 PM,53.8,29.1,39,29.85,10.0,North,-9999.0,-,N/A,,Clear,0,2014-01-26 21:35:00
4:55 PM,52.7,28.9,40,29.85,10.0,North,-9999.0,-,N/A,,Clear,0,2014-01-26 21:55:00
5:15 PM,52.0,28.9,41,29.86,10.0,North,-9999.0,-,N/A,,Clear,0,2014-01-26 22:15:00
5:35 PM,50.9,28.8,43,29.86,10.0,North,-9999.0,-,N/A,,Clear,0,2014-01-26 22:35:00
5:55 PM,50.0,28.9,44,29.87,10.0,North,-9999.0,-,N/A,,Clear,0,2014-01-26 22:55:00
6:15 PM,49.3,29.1,46,29.88,10.0,North,-9999.0,-,N/A,,Clear,0,2014-01-26 23:15:00
6:35 PM,48.9,29.1,46,29.88,10.0,North,-9999.0,-,N/A,,Clear,0,2014-01-26 23:35:00
6:55 PM,48.6,29.3,47,29.88,10.0,North,-9999.0,-,N/A,,Clear,0,2014-01-26 23:55:00
7:15 PM,48.0,29.3,48,29.89,10.0,North,-9999.0,-,N/A,,Clear,0,2014-01-27 00:15:00
7:35 PM,47.5,29.3,49,29.90,10.0,North,-9999.0,-,N/A,,Clear,0,2014-01-27 00:35:00
7:55 PM,47.1,29.3,50,29.89,10.0,North,-9999.0,-,N/A,,Clear,0,2014-01-27 00:55:00
8:15 PM,46.6,29.3,51,29.89,10.0,North,-9999.0,-,N/A,,Clear,0,2014-01-27 01:15:00
8:35 PM,45.9,29.3,52,29.89,10.0,North,-9999.0,-,N/A,,Clear,0,2014-01-27 01:35:00
8:55 PM,45.9,29.3,52,29.89,10.0,North,-9999.0,-,N/A,,Clear,0,2014-01-27 01:55:00
9:15 PM,45.9,29.5,53,29.90,10.0,North,-9999.0,-,N/A,,Clear,0,2014-01-27 02:15:00
9:35 PM,45.0,29.5,55,29.89,10.0,North,-9999.0,-,N/A,,Clear,0,2014-01-27 02:35:00
9:55 PM,45.0,29.3,54,29.89,10.0,North,-9999.0,-,N/A,,Clear,0,2014-01-27 02:55:00
10:15 PM,44.1,29.3,56,29.89,10.0,North,-9999.0,-,N/A,,Clear,0,2014-01-27 03:15:00
10:35 PM,44.1,29.5,57,29.90,10.0,North,-9999.0,-,N/A,,Clear,0,2014-01-27 03:35:00
10:55 PM,42.8,29.7,60,29.90,10.0,North,-9999.0,-,N/A,,Clear,0,2014-01-27 03:55:00
11:15 PM,42.6,29.7,60,29.90,10.0,North,-9999.0,-,N/A,,Clear,0,2014-01-27 04:15:00
11:35 PM,42.1,29.7,61,29.89,10.0,North,-9999.0,-,N/A,,Clear,0,2014-01-27 04:35:00
11:55 PM,42.3,29.5,61,29.89,10.0,North,-9999.0,-,N/A,,Clear,0,2014-01-27 04:55:00